Location: *
(46.1200°N, 11.2700°E)
Time: 10:11:02
(UTC+00:00)

SeaSat 1 - Pass Details

Date: 02 March 2021
Orbit: 744 x 747 km, 108.0° (Epoch: 18 April)

Event Time Altitude Azimuth Distance (km) Brightness Sun altitude
Rises 18:37:49 0° 26° (NNE) 3,201 5.5 -17.2°
Reaches altitude 10° 18:40:05 10° 25° (NNE) 2,273 4.8 -17.6°
Maximum altitude 18:45:01 74° 301° (WNW) 781 2.6 -18.4°
Drops below altitude 10° 18:49:55 10° 217° (SW) 2,260 5.3 -19.3°
Sets 18:52:11 0° 215° (SW) 3,180 6.0 -19.7°
